Location: Tyler Bend Campground
(35.9875°N, 92.7606°W)
Time: 10:25:55
(UTC-06:00)

CZ-2C R/B - Visible Passes

Search period start: 26 January 2015 00:00
Search period end: 05 February 2015 00:00
Orbit: 669 x 786 km, 98.1° (Epoch: 24 January)

Date Brightness Start Highest point End Pass type
(mag) Time Alt. Az. Time Alt. Az. Time Alt. Az.
26 Jan 5.4 06:41:22 10° NE 06:44:09 16° E 06:47:06 10° SE visible
26 Jan 3.2 19:23:55 10° S 19:29:00 55° W 19:34:05 10° NNW visible
27 Jan 2.7 18:36:26 10° SSE 18:41:24 50° ENE 18:46:25 10° N visible
27 Jan 5.2 20:16:32 10° SW 20:20:00 17° W 20:23:13 10° NW visible
28 Jan 5.4 06:44:10 10° NE 06:47:09 17° E 06:50:17 10° SE visible
28 Jan 3.4 19:26:57 10° S 19:31:59 51° W 19:37:02 10° NNW visible
29 Jan 2.6 18:39:21 10° SSE 18:44:23 53° ENE 18:49:25 10° N visible
29 Jan 5.3 20:19:48 10° SW 20:23:01 16° W 20:26:00 10° NW visible
30 Jan 5.3 06:46:58 10° NE 06:50:08 18° E 06:53:24 10° SE visible
30 Jan 3.5 19:30:00 10° S 19:34:59 47° W 19:39:57 10° NNW visible
31 Jan 2.5 18:42:17 10° SSE 18:47:21 58° ENE 18:52:25 10° N visible
31 Jan 5.4 20:23:05 10° SW 20:26:02 15° W 20:28:42 10° WNW visible
01 Feb 3.7 17:56:21 10° ESE 17:59:59 20° ENE 18:03:45 10° NNE visible
01 Feb 3.7 19:33:02 10° S 19:37:59 44° W 19:42:52 10° NNW visible
02 Feb 2.5 18:45:14 10° SSE 18:50:19 62° ENE 18:55:24 10° N visible
02 Feb 5.5 20:26:26 10° WSW 20:29:04 13° W 20:31:22 10° WNW visible
03 Feb 3.8 19:36:06 10° SSW 19:40:58 40° W 19:45:46 10° NNW visible
04 Feb 2.4 18:48:10 10° SSE 18:53:18 67° ENE 18:58:22 10° N visible
04 Feb 5.6 20:29:52 10° WSW 20:32:05 12° W 20:33:57 10° WNW visible
